This is the latest recevied weather packets stored in our database for station/object NE8U. If no packets are shown the sender has not sent any weather packets the latest 10 day(s).
| Time | Temp. | Humidity | Pressure | Rain* | Wind** | Luminosity | Snow |
|---|---|---|---|---|---|---|---|
| 1777491505 | 29.44° C | 13% | 1016.5 hPa | 0 mm | - | 698 W/m² | - |
| 1777491202 | 29.44° C | 13% | 1016.5 hPa | 0 mm | - | 837 W/m² | - |
| 1777490898 | 27.78° C | 14% | 1016.6 hPa | 0 mm | - | 738 W/m² | - |
| 1777490594 | 29.44° C | 13% | 1016.7 hPa | 0 mm | - | 782 W/m² | - |
| 1777490290 | 27.78° C | 14% | 1016.6 hPa | 0 mm | - | 731 W/m² | - |
| 1777489988 | 28.33° C | 15% | 1017 hPa | 0 mm | - | 801 W/m² | - |
| 1777489686 | 27.78° C | 15% | 1016.8 hPa | 0 mm | - | 809 W/m² | - |
| 1777489382 | 28.33° C | 15% | 1016.8 hPa | 0 mm | - | 820 W/m² | - |
| 1777489079 | 27.78° C | 16% | 1016.8 hPa | 0 mm | - | 819 W/m² | - |
| 1777488775 | 27.78° C | 16% | 1016.9 hPa | 0 mm | - | 783 W/m² | - |
| 1777488474 | 27.78° C | 16% | 1017.1 hPa | 0 mm | - | 760 W/m² | - |
| 1777488171 | 27.78° C | 16% | 1017.2 hPa | 0 mm | - | 763 W/m² | - |
| 1777487869 | 27.78° C | 16% | 1017.2 hPa | 0 mm | - | 797 W/m² | - |
| 1777487567 | 28.33° C | 16% | 1017.3 hPa | 0 mm | - | 798 W/m² | - |
| 1777487264 | 26.67° C | 17% | 1017.4 hPa | 0 mm | - | 805 W/m² | - |
| 1777486960 | 27.22° C | 16% | 1017.4 hPa | 0 mm | - | 826 W/m² | - |
| 1777486657 | 26.67° C | 17% | 1017.7 hPa | 0 mm | - | 815 W/m² | - |
| 1777486355 | 26.11° C | 18% | 1017.7 hPa | 0 mm | - | 677 W/m² | - |
| 1777486052 | 26.11° C | 18% | 1017.8 hPa | 0 mm | - | 615 W/m² | - |
| 1777485748 | 25.56° C | 18% | 1017.7 hPa | 0 mm | - | 607 W/m² | - |
| 1777485444 | 24.44° C | 18% | 1017.4 hPa | 0 mm | - | 314 W/m² | - |
| 1777485140 | 25° C | 18% | 1017.7 hPa | 0 mm | - | 320 W/m² | - |
| 1777484837 | 25.56° C | 18% | 1017.8 hPa | 0 mm | - | 326 W/m² | - |
| 1777484534 | 25° C | 19% | 1017.8 hPa | 0 mm | - | 319 W/m² | - |
| 1777484231 | 25° C | 19% | 1018 hPa | 0 mm | - | 465 W/m² | - |
* Rain latest hour (hover to see other rain measurements)
** Current wind speed in m/s (hover to see current wind gust speed)